Flag for Switzerland Weather past 2 weeks in Delémont, Jura, Switzerland

Now
95 °F

Extremely hot.


Feels Like: 93 °F
Forecast: 65 / 93 °F
Wind: 5 mph from Southeast

Location: Grenchen

Current Time: Jul 3, 2015 at 6:21:26 PM

Latest Report: Jul 3, 2015 at 5:00 PM


Visibility: N/A

Pressure: 30.09 "Hg

Humidity: 29%

Dew point: 57 °F

Location of DelémontLocation

Historic Weather in Delémont — Graph

°F

Delémont temperature yesterday

Maximum temperature yesterday: 95 °F (at 4:00 PM)
Minimum temperature yesterday: 64 °F (at 6:00 AM)
Average temperature yesterday: 79 °F

Past Weeks' High & Low Weather Summary

 TemperatureHumidityPressure
High95 °F (Jul 2, 4:00 PM)100% (Jun 22, 6:00 AM)30.26 "Hg (Jun 22, 6:00 AM)
Low44 °F (Jun 24, 5:00 AM)23% (Jun 30, 4:00 PM)29.75 "Hg (Jun 22, 9:00 PM)
Average67 °F65%30.10 "Hg
* Reported Jun 18 5:00 PM — Jul 3 5:00 PM, Delémont, Weather by CustomWeather, © 2015

Note: Actual official high and low records may vary slightly from our data, if they occured in-between our weather recording intervals... More about our weather records

Advertising

Delémont weather history for previous 24 hours

 ConditionsComfort  
Time TempWeatherWind HumidityBarometerVisibility
5:00 PM
Fri, Jul 3
95 °FExtremely hot.5 mph29%30.09 "HgN/A
4:00 PM94 °FExtremely hot.3 mph29%30.12 "HgN/A
3:00 PM94 °FExtremely hot.5 mph30%30.13 "HgN/A
2:00 PM92 °FHot.2 mph26%30.14 "HgN/A
1:00 PM89 °FHot.2 mph37%30.16 "HgN/A
12:00 PM88 °FPleasantly warm.2 mph39%30.18 "HgN/A
11:00 AM84 °FWarm.2 mph45%30.20 "HgN/A
10:00 AM81 °FWarm.1 mph50%30.22 "HgN/A
9:00 AM76 °FMild.1 mph63%30.23 "HgN/A
8:00 AM71 °FMild.1 mph76%30.25 "HgN/A
7:00 AM66 °FMild.2 mph93%30.26 "HgN/A
6:00 AM67 °FMild.2 mph90%30.24 "HgN/A
5:00 AM66 °FMild.1 mph91%30.23 "HgN/A
4:00 AM67 °FMild.2 mph90%30.22 "HgN/A
3:00 AM69 °FMild.1 mph85%30.22 "HgN/A
2:00 AM69 °FMild.2 mph90%30.21 "HgN/A
1:00 AM71 °FMild.1 mph87%30.20 "HgN/A
12:00 AM74 °FMild.1 mph79%30.18 "HgN/A
11:00 PM
Thu, Jul 2
76 °FMild.2 mph75%30.16 "HgN/A
10:00 PM79 °FWarm.1 mph64%30.13 "HgN/A
9:00 PM84 °FWarm.1 mph64%30.09 "HgN/A
8:00 PM89 °FHot.1 mph47%30.05 "HgN/A
7:00 PM92 °FHot.1 mph37%30.04 "HgN/A
6:00 PM88 °FHot.5 mph48%30.05 "HgN/A
Weather by CustomWeather, © 2015

See weather overviewHow to use our weather pages